AirNav   Air Wisconsin pilot careers
 
 579 users online  

KDRP Delta Regional Airport
Colt, Arkansas, USA

GOING TO COLT?


FAA INFORMATION EFFECTIVE 13 SEPTEMBER 2018

Location

FAA Identifier: DRP
Lat/Long: 35-07-12.2000N / 090-49-35.4000W
35-07.203333N / 090-49.590000W
35.1200556 / -90.8265000
(estimated)
Elevation: 239 ft. / 72.8 m (surveyed)
Variation: 01W (2015)
From city: 1 mile SW of COLT, AR
Time zone: UTC -5 (UTC -6 during Standard Time)
Zip code: 72326

Airport Operations

Airport use: Open to the public
Activation date: 04/2014
Control tower: no
ARTCC: MEMPHIS CENTER
FSS: JONESBORO FLIGHT SERVICE STATION
NOTAMs facility: JBR (NOTAM-D service available)
Attendance: UNATNDD
Wind indicator: lighted
Segmented circle: yes
Lights: ACTVT HIRL RY 18/36; REIL RYS 18 & 36 - CTAF. PAPI RYS 18 & 36 OPERS CONTINUOUSLY.
Beacon: white-green (lighted land airport)
Operates sunset to sunrise.

Airport Communications

CTAF/UNICOM: 123.0
  • APCH/DEP SVC PRVDD BY MEMPHIS ARTCC ON FREQS 135.3/335.8 (BRINKLEY RCAG).

Nearby radio navigation aids

VOR radial/distance  VOR name  Freq  Var
GQEr227/21.8GILMORE VOR/DME113.0004E
UJMr346/33.5MARVELL VOR/DME109.6001E

Airport Services

Fuel available: 100LL
FUEL AVBL SELF SERVE AFT HRS WITH CREDIT CARD
Parking: tiedowns

Runway Information

Runway 18/36

Dimensions: 5003 x 75 ft. / 1525 x 23 m
Surface: asphalt, in good condition
Weight bearing capacity: 
Single wheel: 30.0
Runway edge lights: high intensity
RUNWAY 18  RUNWAY 36
Latitude: 35-07.615722N35-06.791037N
Longitude: 090-49.584015W090-49.595965W
Elevation: 239.0 ft.229.0 ft.
Traffic pattern: leftleft
Runway heading: 182 magnetic, 181 true002 magnetic, 001 true
Markings: precision, in good conditionprecision, in good condition
Visual slope indicator: 2-light PAPI on left (3.00 degrees glide path)2-light PAPI on left (3.00 degrees glide path)
Runway end identifier lights: yesyes
Touchdown point: yes, no lightsyes, no lights

Airport Ownership and Management from official FAA records

Ownership: Publicly-owned
Owner: DELTA REGIONAL AIRPORT AUTHORITY
21 CR 703
WYNNE, AR 72396
Phone 870-208-6607
Manager: JOHN KERR
21 CR 703
WYNNE, AR 72396
Phone 870-208-6607

Airport Operational Statistics

Aircraft based on the field: 7
Single engine airplanes: 6
Multi engine airplanes: 1
    
Aircraft operations: avg 40/week *
86% local general aviation
14% transient general aviation
* for 12-month period ending 30 April 2017

Instrument Procedures

NOTE: All procedures below are presented as PDF files. If you need a reader for these files, you should download the free Adobe Reader.

NOT FOR NAVIGATION. Please procure official charts for flight.
FAA instrument procedures published for use from 13 September 2018 at 0901Z to 11 October 2018 at 0900Z.

 
IAPs - Instrument Approach Procedures
RNAV (GPS) RWY 18   download (166KB)
RNAV (GPS) RWY 36   download (163KB)
NOTE: Special Take-Off Minimums/Departure Procedures apply   download

Other nearby airports with instrument procedures:

6M7 - Marianna/Lee County Airport-Steve Edwards Field (20 nm S)
M36 - Frank Federer Memorial Airport (22 nm SW)
M60 - Woodruff County Airport (24 nm NW)
KAWM - West Memphis Municipal Airport (29 nm E)
KHEE - Thompson-Robbins Airport (33 nm S)
 
Loc | Ops | Rwys | IFR | FBO | Links
Com | Nav | Svcs | Stats | Notes


 
Aerial photo
No photo
 
Airport distance calculator
Flying to Delta Regional Airport? Find the distance to fly.

From to KDRP

Sunrise and sunset
Times for 24-Sep-2018
 Local
(UTC-5)
 Zulu
(UTC)
Morning civil twilight06:2811:28
Sunrise06:5411:54
Sunset18:5723:57
Evening civil twilight19:2200:22

Current date and time
Zulu (UTC)  25-Sep-2018 04:43:47
Local (UTC-5)  24-Sep-2018 23:43:47
 
METAR
KUTA 
35nm SE 
250415Z AUTO 13004KT 10SM 22/22 A2996 RMK AO2 TSNO
KM19 
35nm NW 
250412Z AUTO 17004KT 10SM FEW014 SCT070 SCT085 23/23 A2992 RMK AO2 LTG DSNT NE PNO $
KMEM 
42nm E 
250354Z 14006KT 10SM SCT070 BKN090 BKN250 25/24 A2996 RMK AO2 SLP139 T02500239 $
KJBR 
44nm N 
250353Z AUTO 11005KT 10SM BKN050 BKN075 24/24 A2993 RMK AO2 SLP131 T02390239 PNO $
KSRC 
45nm W 
250356Z AUTO 00000KT 8SM OVC004 24/ A2993 RMK AO2 RAB13E48 CIG 002V007 SLP141 P0013 T0239
KSGT 
48nm SW 
250356Z AUTO 14005KT 10SM FEW044 SCT070 23/23 A2993 RMK AO2 SLP134 T02330228
KNQA 
49nm E 
250350Z 14004KT 10SM CLR 24/23 A2995
TAF
KMEM 
42nm E 
250301Z 2503/2606 15007KT P6SM VCSH SCT025 BKN060 FM250800 18008KT 5SM BR VCSH BKN025 FM251500 20008KT P6SM VCSH FEW010 BKN030 OVC100 FM251800 20006KT P6SM VCTS SCT025 BKN045CB FM260100 19006KT P6SM VCSH SCT025 BKN045
KJBR 
44nm N 
241725Z 2418/2518 16006KT P6SM VCSH OVC009 FM242100 15005KT P6SM VCTS SCT020CB BKN030 FM250200 16005KT P6SM VCSH SCT025 BKN035 FM250700 18003KT 4SM BR BKN015 FM251500 22011KT P6SM VCSH FEW010 BKN025
NOTAMs
Click for the latest NOTAMs
NOTAMs are issued by the DoD/FAA and will open in a separate window not controlled by AirNav.

 

 
 

FBO, Fuel Providers, and Aircraft Ground Support

  
 Business Name 
 
 Contact 
 
 Services / Description 
 
Fuel Prices
 
Comments
  
Delta Regional Airport 870-208-6607
no information available

If you are affiliated with Delta Regional Airport and would like to show here your services, contact info, web link, logo, and more, click here
100LL
SS $4.12 
 Updated 01-Aug-2018
 
   1 read write
SS=Self service
Update Fuel Prices
 

Would you like to see your business listed on this page?

 If your business provides an interesting product or service to pilots, flight crews, aircraft, or users of the Delta Regional Airport, you should consider listing it here.  To start the listing process, click on the button below
 
Add a business
 

Other Pages about Delta Regional Airport

Update a link
 
Copyright © AirNav, LLC. All rights reserved. Privacy Policy  Contact